Flag for Spain Weather past 2 weeks in Las Palmas, Canary Islands, Spain

Now
68 °F

Passing clouds.


Feels Like: 68 °F
Forecast: 67 / 74 °F
Wind: 22 mph from North

Location: Las Palmas De Gran Canaria / Gando

Current Time: May 30, 2015 at 10:19:57 PM

Latest Report: May 30, 2015 at 9:30 PM


Visibility: N/A

Pressure: 30.09 "Hg

Humidity: 69%

Dew point: 57 °F

Location of Las PalmasLocation

Historic Weather in Las Palmas — Graph

°F

Las Palmas temperature yesterday

Maximum temperature yesterday: 75 °F (at 2:30 PM)
Minimum temperature yesterday: 66 °F (at 1:00 AM)
Average temperature yesterday: 70 °F

Past Weeks' High & Low Weather Summary

 TemperatureHumidityPressure
High81 °F (May 17, 3:00 PM)83% (May 17, 3:30 AM)30.21 "Hg (May 17, 3:30 AM)
Low64 °F (May 20, 7:30 AM)34% (May 25, 2:00 PM)30.01 "Hg (May 17, 3:30 PM)
Average70 °F62%30.08 "Hg
* Reported May 15 9:00 PM — May 30 9:00 PM, Las Palmas, Weather by CustomWeather, © 2015

Note: Actual official high and low records may vary slightly from our data, if they occured in-between our weather recording intervals... More about our weather records

Advertising

Las Palmas weather history for previous 24 hours

 ConditionsComfort  
Time TempWeatherWind HumidityBarometerVisibility
9:00 PM
Sat, May 30
68 °FPassing clouds.24 mph73%30.09 "HgN/A
8:30 PM70 °FPassing clouds.23 mph64%30.09 "HgN/A
8:00 PM70 °FPassing clouds.25 mph64%30.07 "HgN/A
7:30 PM70 °FPassing clouds.26 mph64%30.07 "HgN/A
7:00 PM72 °FPassing clouds.26 mph65%30.07 "HgN/A
6:30 PM72 °FPassing clouds.26 mph65%30.07 "HgN/A
6:00 PM72 °FPassing clouds.30 mph65%30.07 "HgN/A
5:30 PM73 °FPassing clouds.29 mph61%30.07 "HgN/A
5:00 PM73 °FPassing clouds.30 mph61%30.07 "HgN/A
4:30 PM73 °FPassing clouds.30 mph61%30.07 "HgN/A
4:00 PM75 °FPassing clouds.29 mph57%30.07 "HgN/A
3:30 PM73 °FPassing clouds.30 mph61%30.07 "HgN/A
3:00 PM75 °FPassing clouds.28 mph57%30.07 "HgN/A
2:30 PM73 °FPassing clouds.28 mph61%30.09 "HgN/A
2:00 PM73 °FPassing clouds.26 mph57%30.09 "HgN/A
1:30 PM73 °FPassing clouds.26 mph61%30.09 "HgN/A
1:00 PM73 °FPassing clouds.25 mph61%30.09 "HgN/A
12:30 PM73 °FPassing clouds.24 mph61%30.09 "HgN/A
12:00 PM73 °FPassing clouds.24 mph57%30.09 "HgN/A
11:30 AM73 °FPassing clouds.24 mph61%30.09 "HgN/A
11:00 AM72 °FPassing clouds.23 mph61%30.09 "HgN/A
10:30 AM72 °FScattered clouds.21 mph65%30.09 "HgN/A
10:00 AM70 °FPartly sunny.22 mph69%30.09 "HgN/A
9:30 AM68 °FPartly sunny.21 mph73%30.09 "HgN/A
9:00 AM68 °FPartly sunny.20 mph69%30.09 "HgN/A
8:30 AM68 °FPartly sunny.18 mph69%30.09 "HgN/A
8:00 AM68 °FPassing clouds.17 mph69%30.07 "HgN/A
7:30 AM68 °FPassing clouds.17 mph69%30.07 "HgN/A
7:00 AM68 °FPassing clouds.20 mph69%30.07 "HgN/A
6:30 AM66 °FPassing clouds.18 mph73%30.04 "HgN/A
6:00 AM66 °FPassing clouds.18 mph73%30.04 "HgN/A
5:30 AM66 °FPassing clouds.17 mph73%30.04 "HgN/A
5:00 AM66 °FPassing clouds.16 mph78%30.04 "HgN/A
4:30 AM66 °FPassing clouds.18 mph78%30.07 "HgN/A
4:00 AM66 °FPassing clouds.18 mph73%30.04 "HgN/A
3:30 AM66 °FPassing clouds.20 mph73%30.04 "HgN/A
3:00 AM66 °FPassing clouds.21 mph78%30.07 "HgN/A
2:30 AM66 °FPassing clouds.20 mph73%30.07 "HgN/A
2:00 AM66 °FPassing clouds.18 mph73%30.07 "HgN/A
1:30 AM66 °FPassing clouds.22 mph73%30.07 "HgN/A
1:00 AM66 °FPassing clouds.23 mph73%30.09 "HgN/A
12:30 AM66 °FPassing clouds.21 mph78%30.09 "HgN/A
12:00 AM68 °FPassing clouds.24 mph69%30.09 "HgN/A
11:30 PM
Fri, May 29
66 °FPassing clouds.24 mph73%30.09 "HgN/A
11:00 PM66 °FPassing clouds.22 mph73%30.07 "HgN/A
10:30 PM68 °FPassing clouds.21 mph73%30.07 "HgN/A
Weather by CustomWeather, © 2015

See weather overviewHow to use our weather pages